Starlink 5412

operational
NORAD ID: 54806 Int'l Des: 2022-175 Owner: SPXS Country: US Constellation: starlink
LEOCIRCULAR

Starlink 5412について

説明を読み込み中...

リアルタイム位置

3D地球を読み込み中...

次回通過

高度履歴

Altitude vs Time

uPlot chart will show altitude changes over time

軌道要素

1 54806U 22175BA 25353.79323744 -.00000241 00000-0 29291-5 0 9993
2 54806 53.2188 27.3825 0001143 94.8902 265.2220 15.08833069168074
Epoch: Dec 19, 2025 • Age: 6 hours

現在のステータス

高度 541.5 km
速度 7.59 km/s
衛星直下点 -4.32°S, 86.51°W
打ち上げ日 Dec 17, 2022
運用期間 3 years
タイプ internet

技術仕様

分類 Payload
質量 305.00 kg
乾燥質量 290.00 kg
総質量 305.00 kg
長さ 0.20 m
直径 2.80 m
スパン 9.00 m
形状 Box + pan
製造者 SPXS
バスタイプ Starlink
フェーズステータス In Orbit
所有者/国 SPXS/US

大規模コンステレーション

Loading constellations...